Home > Weather > Sonneberg > Past weeks

Flag for Germany Past Weather in Sonneberg, Thuringia, Germany — Yesterday and Last 2 Weeks

Now
73 °F

Passing clouds.


Feels Like: 77 °F
Forecast: 54 / 60 °F
Wind: 7 mph from Northeast

Location: Hof Airport

Current Time: May 29, 2016 at 5:37:02 PM

Latest Report: May 29, 2016 at 4:50 PM


Visibility: N/A

Pressure: 29.71 "Hg

Humidity: 53%

Dew Point: 55 °F

Location of SonnebergLocation

Past Weather in Sonneberg — Graph

°F

Sonneberg Temperature Yesterday

Maximum temperature yesterday: 72 °F (at 2:50 PM)
Minimum temperature yesterday: 54 °F (at 8:50 AM)
Average temperature yesterday: 65 °F

High & Low Weather Summary for the Past Weeks

 TemperatureHumidityPressure
High82 °F (May 22, 4:50 PM)94% (May 23, 5:50 PM)30.12 "Hg (May 23, 5:50 PM)
Low39 °F (May 15, 9:50 AM)23% (May 22, 4:50 PM)29.71 "Hg (May 29, 3:50 PM)
Average56 °F64%29.96 "Hg
* Reported May 14 4:20 PM — May 29 4:20 PM, Sonneberg, Weather by CustomWeather, © 2016

Note: Actual official high and low records may vary slightly from our data, if they occured in-between our weather recording intervals... More about our weather records

Advertising

Sonneberg Weather History for the Previous 24 Hours

Scroll right to see more
 ConditionsComfort  
Time TempWeatherWind HumidityBarometerVisibility
4:20 PM
Sun, May 29
72 °FPassing clouds.9 mph53%29.71 "HgN/A
3:50 PM72 °FPassing clouds.7 mph65%29.71 "HgN/A
3:20 PM70 °FBroken clouds.8 mph60%29.74 "HgN/A
2:50 PM68 °FBroken clouds.6 mph73%29.74 "HgN/A
2:20 PM68 °FSunny.8 mph69%29.74 "Hg10 mi
1:50 PM68 °FPassing clouds.5 mph73%29.77 "HgN/A
1:20 PM70 °FPassing clouds.6 mph69%29.74 "HgN/A
12:50 PM68 °FSunny.3 mph73%29.74 "Hg10 mi
12:20 PM68 °FSunny.2 mph73%29.77 "Hg10 mi
11:50 AM66 °FSunny.3 mph78%29.77 "Hg10 mi
11:20 AM66 °FPassing clouds.5 mph78%29.77 "HgN/A
10:50 AM68 °FPassing clouds.5 mph78%29.77 "HgN/A
10:20 AM66 °FSunny.8 mph78%29.80 "Hg10 mi
9:50 AM64 °FPassing clouds.6 mph83%29.80 "HgN/A
5:50 PM
Sat, May 28
66 °FPassing clouds.6 mph64%29.92 "HgN/A
5:20 PM64 °FBroken clouds.6 mph64%29.92 "HgN/A
Weather by CustomWeather, © 2016

See weather overviewHow to use our weather pages